Havre, MT

6:14 PM MST on December 06, 2019 (GMT -0700)
Havre City-County

Weather History for KHVR - November, 2019

Change the Weather History Date:

Tuesday, November 19, 2019

  Actual Average Record
Temperature  
Mean Temperature 34 °F 28 °F  
Max Temperature 36 °F 40 °F 74 °F (1936)
Min Temperature 32 °F 17 °F -27 °F (1896)
Degree Days  
Heating Degree Days 31 37  
Month to date heating degree days 716 613  
Since 1 July heating degree days 1887 1612  
Cooling Degree Days 0 0  
Month to date cooling degree days 0 0  
Year to date cooling degree days 315 387  
Moisture  
Dew Point 31 °F    
Average Humidity 92    
Maximum Humidity 100    
Minimum Humidity 75    
Precipitation  
Precipitation 0.39 in 0.02 in 0.17 in (1883)
Month to date precipitation 1.12 0.29  
Year to date precipitation 11.55 10.66  
Snow  
Snow 3.90 in 0.20 in 4.90 in (1996)
Month to date snowfall 17.1 3.0  
Since 1 July snowfall 28.5 5.3  
Since 1 September snowfall 28.5 5.3  
Snow Depth 0.00 in    
Sea Level Pressure  
Sea Level Pressure 29.77 in    
Wind  
Wind Speed 14 mph ()    
Max Wind Speed 26 mph    
Max Gust Speed 32 mph    
Visibility 4.1 miles    
Events Rain , Snow    
T = Trace of Precipitation, MM = Missing Value Source: Averaged Metar Reports

Daily Weather History Graph

Daily Weather History Graph

Search for Another Location

Airport or City:

Astronomy

Nov. 19, 2019 Rise Set
Actual Time 7:32 AM MST 4:35 PM MST
Civil Twilight 6:58 AM MST 5:10 PM MST
Nautical Twilight 6:19 AM MST 5:48 PM MST
Astronomical Twilight 5:42 AM MST 6:25 PM MST
Moon 11:41 PM MST (11/19) 1:41 PM MST (11/19)
Length of Visible Light 10h 11m
Length of Day
9h 02m
Waning Gibbous, 51% of the Moon is Illuminated
Nov 19
Waning Gibbous
Nov 19
Last Quarter
Nov 26
New
Dec 3
First Quarter
Dec 11
Full

Hourly Weather History & Observations

Time (MST) Temp. Windchill Dew Point Humidity Pressure Visibility Wind Dir Wind Speed Gust Speed Precip Events Conditions
12:53 AM 34.0 °F 25.5 °F 28.0 °F 79% 29.79 in 10.0 mi ENE 11.5 mph - N/A   Clear
1:53 AM 34.0 °F 25.0 °F 28.0 °F 79% 29.78 in 10.0 mi East 12.7 mph - N/A   Overcast
2:53 AM 33.1 °F 23.4 °F 27.0 °F 78% 29.76 in 10.0 mi East 13.8 mph - N/A   Mostly Cloudy
3:53 AM 32.0 °F 23.0 °F 27.0 °F 82% 29.77 in 10.0 mi ENE 11.5 mph - N/A   Overcast
4:53 AM 33.1 °F 24.4 °F 28.0 °F 82% 29.75 in 10.0 mi ENE 11.5 mph - N/A   Mostly Cloudy
5:53 AM 35.1 °F 25.2 °F 28.0 °F 76% 29.73 in 10.0 mi East 16.1 mph - N/A   Overcast
6:53 AM 34.0 °F 23.4 °F 27.0 °F 75% 29.73 in 10.0 mi ENE 17.3 mph - N/A   Overcast
7:53 AM 34.0 °F 22.7 °F 27.0 °F 75% 29.71 in 10.0 mi ENE 19.6 mph - N/A   Overcast
8:53 AM 34.0 °F 23.0 °F 27.0 °F 75% 29.72 in 10.0 mi East 18.4 mph - N/A   Overcast
9:53 AM 35.1 °F 23.8 °F 28.9 °F 78% 29.70 in 10.0 mi East 20.7 mph - 0.00 in Rain Light Rain
10:53 AM 34.0 °F 23.8 °F 30.9 °F 89% 29.72 in 8.0 mi ENE 16.1 mph - 0.02 in Rain Light Rain
11:53 AM 34.0 °F 23.4 °F 32.0 °F 92% 29.70 in 8.0 mi East 17.3 mph - 0.04 in Rain Light Rain
12:53 PM 33.1 °F 21.9 °F 30.9 °F 92% 29.69 in 10.0 mi East 18.4 mph - 0.01 in Rain Light Rain
1:53 PM 34.0 °F 22.7 °F 30.9 °F 89% 29.70 in 10.0 mi East 19.6 mph - 0.01 in   Overcast
2:28 PM 33.1 °F 21.5 °F 32.0 °F 96% 29.64 in 1.8 mi East 19.6 mph - 0.03 in Snow Light Snow
2:36 PM 33.1 °F 21.5 °F 32.0 °F 96% 29.64 in 1.0 mi East 19.6 mph - 0.06 in Snow Light Snow
2:53 PM 33.1 °F 22.2 °F 32.0 °F 96% 29.71 in 1.5 mi East 17.3 mph - 0.08 in Snow Light Snow
3:44 PM 33.1 °F 22.6 °F 32.0 °F 96% 29.67 in 2.5 mi ENE 16.1 mph - 0.01 in Snow Light Snow
3:53 PM 33.1 °F 23.0 °F 32.0 °F 96% 29.75 in 2.5 mi East 15.0 mph - 0.01 in Snow Light Snow
4:08 PM 33.1 °F 23.0 °F 32.0 °F 96% 29.68 in 1.5 mi ENE 15.0 mph - 0.01 in Snow Light Snow
4:16 PM 33.1 °F 23.4 °F 32.0 °F 96% 29.69 in 1.2 mi ENE 13.8 mph - 0.02 in Snow Light Snow
4:31 PM 33.1 °F 23.9 °F 32.0 °F 96% 29.70 in 2.0 mi ENE 12.7 mph - 0.03 in Snow Light Snow
4:40 PM 33.1 °F 24.4 °F 32.0 °F 96% 29.70 in 3.0 mi ENE 11.5 mph - 0.03 in Snow Light Snow
4:46 PM 33.1 °F 23.9 °F 32.0 °F 96% 29.71 in 2.5 mi ENE 12.7 mph - 0.03 in Snow Light Snow
4:53 PM 33.1 °F 23.4 °F 32.0 °F 96% 29.78 in 2.0 mi ENE 13.8 mph - 0.04 in Snow Light Snow
5:00 PM 33.1 °F 24.4 °F 32.0 °F 96% 29.71 in 1.8 mi ENE 11.5 mph - 0.00 in Snow Light Snow
5:21 PM 33.1 °F 23.4 °F 32.0 °F 96% 29.72 in 1.2 mi ENE 13.8 mph - 0.02 in Snow Light Snow
6:24 PM 32.0 °F 22.1 °F 32.0 °F 100% 29.75 in 1.8 mi ENE 13.8 mph - 0.03 in Snow Light Snow
6:30 PM 32.0 °F 22.5 °F 32.0 °F 100% 29.75 in 2.5 mi ENE 12.7 mph - 0.03 in Snow Light Snow
6:42 PM 32.0 °F 23.0 °F 32.0 °F 100% 29.76 in 1.5 mi ENE 11.5 mph - 0.03 in Snow Light Snow
6:49 PM 32.0 °F 23.0 °F 32.0 °F 100% 29.77 in 1.2 mi ENE 11.5 mph - N/A Snow Light Snow
6:53 PM 32.0 °F 22.1 °F 32.0 °F 100% 29.83 in 1.0 mi ENE 13.8 mph - 0.04 in Snow Light Snow
7:21 PM 33.1 °F 23.4 °F 32.0 °F 96% 29.77 in 1.8 mi ENE 13.8 mph - 0.02 in Snow Light Snow
7:28 PM 33.1 °F 23.0 °F 32.0 °F 96% 29.77 in 3.0 mi ENE 15.0 mph - 0.02 in Snow Light Snow
7:53 PM 33.1 °F 23.0 °F 32.0 °F 96% 29.86 in 4.0 mi ENE 15.0 mph - 0.02 in Snow Light Snow
8:18 PM 33.1 °F 22.6 °F 32.0 °F 96% 29.81 in 2.5 mi ENE 16.1 mph - 0.01 in Snow Light Snow
8:27 PM 33.1 °F 22.6 °F 32.0 °F 96% 29.82 in 4.0 mi ENE 16.1 mph - 0.01 in Snow Light Snow
8:39 PM 33.1 °F 22.6 °F 32.0 °F 96% 29.82 in 1.8 mi ENE 16.1 mph - 0.01 in Snow Light Snow
9:17 PM 33.1 °F 21.5 °F 32.0 °F 96% 29.85 in 1.2 mi NE 19.6 mph - 0.01 in Snow Light Snow
9:37 PM 32.0 °F 19.5 °F 30.9 °F 96% 29.85 in 1.5 mi NE 21.9 mph 29.9 mph 0.01 in Snow Light Snow
9:46 PM 32.0 °F 19.2 °F 30.9 °F 96% 29.86 in 1.2 mi NE 23.0 mph - 0.02 in Snow Light Snow
10:14 PM 32.0 °F 20.1 °F 30.9 °F 96% 29.88 in 1.2 mi NE 19.6 mph - 0.02 in Snow Light Snow
10:25 PM 32.0 °F 18.9 °F 30.9 °F 96% 29.88 in 1.5 mi NE 24.2 mph 31.1 mph 0.02 in Snow Light Snow
10:37 PM 32.0 °F 18.9 °F 30.9 °F 96% 29.89 in 1.5 mi NE 24.2 mph - 0.02 in Snow Light Snow
10:53 PM 32.0 °F 19.5 °F 30.9 °F 96% 29.98 in 1.5 mi NE 21.9 mph - 0.02 in Snow Light Snow
11:22 PM 32.0 °F 20.5 °F 30.9 °F 96% 29.92 in 1.2 mi NE 18.4 mph 28.8 mph 0.01 in Snow Light Snow
11:37 PM 32.0 °F 20.8 °F 30.9 °F 96% 29.93 in 1.2 mi NE 17.3 mph - 0.02 in Snow Light Snow
11:53 PM 32.0 °F 20.5 °F 30.0 °F 92% 30.02 in 1.0 mi NE 18.4 mph - 0.02 in Snow Light Snow